EN

Hourly Weather Beloevo

Today, 30 September, Wednesday

Time Temperature Precipitation Wind Pressure Humidity
00:00 +9°C° 0 mm 1 mps 760 mmHg 92%
01:00 +9°C° 0 mm 1 mps 760 mmHg 92%
02:00 +8°C° 0 mm 0 mps 760 mmHg 92%
03:00 +7°C° 0 mm 0 mps 760 mmHg 92%
04:00 +7°C° 0 mm 0 mps 760 mmHg 92%
05:00 +7°C° 0 mm 0 mps 760 mmHg 93%
06:00 +7°C° 0 mm 0 mps 760 mmHg 93%
07:00 +7°C° 0 mm 0 mps 760 mmHg 93%
08:00 +8°C° 0 mm 0 mps 760 mmHg 87%
09:00 +10°C° 0 mm 0 mps 760 mmHg 82%
10:00 +12°C° 0 mm 0 mps 761 mmHg 76%
11:00 +13°C° 0 mm 0 mps 760 mmHg 72%
12:00 +14°C° 0 mm 0 mps 760 mmHg 67%
13:00 +15°C° 0 mm 0 mps 760 mmHg 63%
14:00 +15°C° 0 mm 0 mps 760 mmHg 65%
15:00 +15°C° 0 mm 0 mps 760 mmHg 67%
16:00 +15°C° 0 mm 0 mps 760 mmHg 69%
17:00 +13°C° 0 mm 0 mps 760 mmHg 75%
18:00 +11°C° 0 mm 0 mps 760 mmHg 81%
19:00 +9°C° 0 mm 0 mps 760 mmHg 87%
20:00 +9°C° 0 mm 0 mps 760 mmHg 88%
21:00 +9°C° 0 mm 0 mps 760 mmHg 89%
22:00 +9°C° 0 mm 1 mps 760 mmHg 90%
23:00 +8°C° 0 mm 0 mps 760 mmHg 90%

Tomorrow, 1 October, Thursday

Time Temperature Precipitation Wind Pressure Humidity
00:00 +8°C° 0 mm 0 mps 760 mmHg 90%
01:00 +8°C° 0 mm 0 mps 760 mmHg 91%
02:00 +8°C° 0 mm 0 mps 760 mmHg 91%
03:00 +8°C° 0 mm 0 mps 760 mmHg 91%
04:00 +9°C° 0 mm 1 mps 760 mmHg 91%
05:00 +8°C° 0 mm 1 mps 760 mmHg 91%
06:00 +8°C° 0 mm 1 mps 760 mmHg 91%
07:00 +8°C° 0 mm 1 mps 759 mmHg 91%
08:00 +10°C° 0 mm 1 mps 760 mmHg 84%
09:00 +11°C° 0 mm 1 mps 760 mmHg 77%
10:00 +13°C° 0 mm 1 mps 760 mmHg 70%
11:00 +14°C° 0 mm 1 mps 759 mmHg 67%
12:00 +15°C° 0 mm 1 mps 759 mmHg 64%
13:00 +16°C° 0 mm 1 mps 759 mmHg 61%
14:00 +16°C° 0 mm 1 mps 759 mmHg 65%
15:00 +16°C° 0 mm 1 mps 759 mmHg 68%
16:00 +16°C° 0 mm 1 mps 758 mmHg 72%
17:00 +14°C° 0 mm 1 mps 758 mmHg 78%
18:00 +13°C° 0 mm 1 mps 758 mmHg 83%
19:00 +11°C° 0 mm 1 mps 758 mmHg 89%
20:00 +11°C° 0 mm 1 mps 758 mmHg 91%
21:00 +11°C° 0 mm 1 mps 758 mmHg 92%
22:00 +10°C° 0 mm 1 mps 758 mmHg 94%
23:00 +10°C° 0 mm 1 mps 758 mmHg 94%

Day after tomorrow, 2 October, Friday

Time Temperature Precipitation Wind Pressure Humidity
00:00 +10°C° 0 mm 1 mps 757 mmHg 95%
01:00 +10°C° 0 mm 1 mps 757 mmHg 95%
02:00 +10°C° 0 mm 1 mps 757 mmHg 95%
03:00 +9°C° 0 mm 1 mps 757 mmHg 95%
04:00 +9°C° 0 mm 1 mps 757 mmHg 95%
05:00 +9°C° 0 mm 1 mps 757 mmHg 95%
06:00 +9°C° 0 mm 1 mps 757 mmHg 95%
07:00 +9°C° 0 mm 1 mps 757 mmHg 96%
08:00 +9°C° 0 mm 2 mps 757 mmHg 91%
09:00 +10°C° 0 mm 2 mps 757 mmHg 85%
10:00 +13°C° 0 mm 2 mps 757 mmHg 80%
11:00 +14°C° 0 mm 2 mps 756 mmHg 75%
12:00 +15°C° 0 mm 2 mps 756 mmHg 70%
13:00 +16°C° 0 mm 2 mps 756 mmHg 64%
14:00 +16°C° 0 mm 2 mps 756 mmHg 66%
15:00 +16°C° 0 mm 2 mps 756 mmHg 67%
16:00 +15°C° 0 mm 2 mps 756 mmHg 69%
17:00 +14°C° 0 mm 2 mps 756 mmHg 76%
18:00 +12°C° 0 mm 2 mps 756 mmHg 83%
19:00 +10°C° 0 mm 2 mps 755 mmHg 89%
20:00 +9°C° 0 mm 2 mps 756 mmHg 91%
21:00 +9°C° 0 mm 2 mps 756 mmHg 93%
22:00 +9°C° 0 mm 2 mps 756 mmHg 94%
23:00 +8°C° 0 mm 2 mps 756 mmHg 95%

3 October, Saturday

Time Temperature Precipitation Wind Pressure Humidity
00:00 +8°C° 0 mm 2 mps 756 mmHg 96%
01:00 +7°C° 0 mm 2 mps 756 mmHg 97%
02:00 +7°C° 0 mm 2 mps 756 mmHg 96%
03:00 +6°C° 0 mm 2 mps 756 mmHg 96%
04:00 +6°C° 0 mm 2 mps 756 mmHg 96%
05:00 +6°C° 0 mm 2 mps 757 mmHg 96%
06:00 +6°C° 0 mm 2 mps 757 mmHg 96%
07:00 +6°C° 0 mm 2 mps 757 mmHg 96%
08:00 +7°C° 0 mm 2 mps 757 mmHg 92%
09:00 +8°C° 0 mm 3 mps 758 mmHg 87%
10:00 +9°C° 0 mm 3 mps 758 mmHg 83%
11:00 +9°C° 0 mm 3 mps 758 mmHg 76%
12:00 +9°C° 0 mm 3 mps 759 mmHg 69%
13:00 +9°C° 0 mm 3 mps 759 mmHg 62%
14:00 +9°C° 0 mm 3 mps 759 mmHg 61%
15:00 +8°C° 0 mm 3 mps 759 mmHg 61%
16:00 +8°C° 0 mm 3 mps 759 mmHg 60%
17:00 +6°C° 0 mm 2 mps 760 mmHg 66%
18:00 +5°C° 0 mm 2 mps 760 mmHg 72%
19:00 +3°C° 0 mm 2 mps 760 mmHg 77%
20:00 +4°C° 0 mm 1 mps 760 mmHg 79%
21:00 +3°C° 0 mm 1 mps 761 mmHg 81%
22:00 +3°C° 0 mm 1 mps 761 mmHg 83%
23:00 +2°C° 0 mm 1 mps 761 mmHg 84%

4 October, Sunday

Time Temperature Precipitation Wind Pressure Humidity
00:00 +2°C° 0 mm 1 mps 761 mmHg 86%
01:00 +2°C° 0 mm 1 mps 761 mmHg 87%
02:00 +1°C° 0 mm 1 mps 761 mmHg 89%
03:00 +1°C° 0 mm 1 mps 761 mmHg 91%
04:00 0°C° 0 mm 0 mps 761 mmHg 93%
05:00 0°C° 0 mm 0 mps 761 mmHg 93%
06:00 0°C° 0 mm 0 mps 761 mmHg 93%
07:00 0°C° 0 mm 0 mps 762 mmHg 93%
08:00 +1°C° 0 mm 0 mps 762 mmHg 85%
09:00 +3°C° 0 mm 0 mps 762 mmHg 77%
10:00 +5°C° 0 mm 0 mps 762 mmHg 69%
11:00 +6°C° 0 mm 0 mps 761 mmHg 64%
12:00 +7°C° 0 mm 0 mps 761 mmHg 60%
13:00 +9°C° 0 mm 1 mps 761 mmHg 55%
14:00 +9°C° 0 mm 1 mps 761 mmHg 56%
15:00 +8°C° 0 mm 1 mps 761 mmHg 56%
16:00 +8°C° 0 mm 1 mps 760 mmHg 57%
17:00 +7°C° 0 mm 1 mps 760 mmHg 61%
18:00 +5°C° 0 mm 1 mps 760 mmHg 66%
19:00 +4°C° 0 mm 1 mps 760 mmHg 70%
20:00 +3°C° 0 mm 1 mps 760 mmHg 72%
21:00 +3°C° 0 mm 1 mps 760 mmHg 74%
22:00 +2°C° 0 mm 1 mps 760 mmHg 76%
23:00 +2°C° 0 mm 1 mps 760 mmHg 77%

5 October, Monday

Time Temperature Precipitation Wind Pressure Humidity
00:00 +2°C° 0 mm 1 mps 760 mmHg 78%
01:00 +1°C° 0 mm 1 mps 760 mmHg 79%
02:00 +1°C° 0 mm 1 mps 759 mmHg 82%
03:00 +1°C° 0 mm 1 mps 759 mmHg 86%
04:00 +1°C° 0 mm 1 mps 759 mmHg 89%
05:00 +1°C° 0 mm 1 mps 759 mmHg 91%
06:00 +1°C° 0 mm 1 mps 759 mmHg 94%
07:00 +1°C° 0 mm 1 mps 759 mmHg 96%
08:00 +3°C° 0 mm 1 mps 759 mmHg 90%
09:00 +5°C° 0 mm 1 mps 759 mmHg 83%
10:00 +6°C° 0 mm 1 mps 759 mmHg 77%
11:00 +6°C° 0 mm 2 mps 759 mmHg 75%
12:00 +7°C° 0 mm 2 mps 758 mmHg 72%
13:00 +8°C° 0 mm 2 mps 758 mmHg 70%
14:00 +8°C° 0 mm 2 mps 758 mmHg 73%
15:00 +8°C° 0 mm 2 mps 758 mmHg 77%
16:00 +7°C° 0 mm 2 mps 757 mmHg 81%
17:00 +7°C° 0 mm 2 mps 757 mmHg 84%
18:00 +7°C° 0 mm 2 mps 757 mmHg 86%
19:00 +6°C° 0 mm 2 mps 757 mmHg 88%
20:00 +6°C° 0 mm 2 mps 756 mmHg 89%
21:00 +6°C° 0 mm 2 mps 756 mmHg 90%
22:00 +6°C° 0 mm 2 mps 756 mmHg 91%
23:00 +6°C° 0 mm 2 mps 756 mmHg 90%
Show more

We Need Your Consent

Meteoprog and our Service Providers may store and access personal data such as cookies, device identifiers or other similar technologies on your device and process such data to personalise content and ads, as well as provide social media features and to analyse the traffic.

  • Store and/or access information on your device

    Cookies, device identifiers or other information can be stored or accessed on your device for the purposes indicated above.

  • Personalised ads and content, ad and content measurement, audience insights, and products development

    Ads and content can be personalised based on a profile. More data can be added to better personalise ads and content. Ad and content performance can be measured. Insights about the audience who saw the ads and content can be derived. Such data can be used to develop or improve user’s experience, systems and software.

By clicking ‘I Agree’ you will allow the use of indicated cookies, device identifiers, web beacons or other similar technologies. Your settings can be changed in the browser on your device.

For certain purposes, legitimate interests may be relied on, rather than consent. You can read more about this in our Privacy and Cookie Policy.